Location: Unspecified
(0.0000°N, 0.0000°E)
Time: 06:35:35
(UTC+00:00)

Courier 1B - Pass Details

Date: 19 November 2019
Orbit: 963 x 1209 km, 28.3° (Epoch: 11 December)

Event Time Altitude Azimuth Distance (km) Brightness Sun altitude
Rises 21:32:09 0° 210° (SSW) 4,087 11.3 -51.9°
Enters shadow 21:36:20 - 188° (S) 3,358 10.6 -52.8°
Reaches altitude 10° 21:39:18 10° 167° (SSE) 3,145 - -53.4°
Maximum altitude 21:39:47 10° 163° (SSE) 3,141 - -53.5°
Drops below altitude 10° 21:40:15 10° 160° (SSE) 3,145 - -53.6°
Sets 21:47:23 0° 116° (ESE) 4,090 - -55.1°
